Time,TemperatureF,DewpointF,PressureIn,WindDirection,WindDirectionDegrees,WindSpeedMPH,WindSpeedGustMPH,Humidity,HourlyPrecipIn,Conditions,Clouds,dailyrainin,SoftwareType,DateUTC
2013-06-25 00:01:00,52.3,51.4,29.83,SW,225,1.6,6.0,97,0.00,,,1.26,WUHU21623XXSP,2013-06-25 07:01:00,
2013-06-25 00:06:00,52.2,51.3,29.83,SW,225,3.4,6.0,97,0.00,,,0.00,WUHU21623XXSP,2013-06-25 07:06:00,
2013-06-25 00:11:00,52.2,51.3,29.83,SW,225,0.0,3.4,97,0.00,,,0.00,WUHU21623XXSP,2013-06-25 07:11:00,
2013-06-25 00:16:00,52.0,51.1,29.83,SSW,202,3.6,3.6,97,0.00,,,0.00,WUHU21623XXSP,2013-06-25 07:16:00,
2013-06-25 00:21:00,51.6,50.7,29.83,SW,225,7.6,7.6,97,0.00,,,0.00,WUHU21623XXSP,2013-06-25 07:21:00,
2013-06-25 00:23:00,51.6,50.7,29.83,SW,225,7.6,7.6,97,0.00,,,0.00,WUHU21623XXSP,2013-06-25 07:23:00,
2013-06-25 00:32:00,51.1,50.2,29.83,SSW,202,7.8,7.8,97,0.00,,,0.00,WUHU21623XXSP,2013-06-25 07:32:00,
2013-06-25 00:37:00,51.1,50.2,29.83,SW,225,2.2,7.8,97,0.00,,,0.00,WUHU21623XXSP,2013-06-25 07:37:00,
2013-06-25 00:42:00,50.7,49.8,29.83,SW,225,0.0,5.6,97,0.00,,,0.00,WUHU21623XXSP,2013-06-25 07:42:00,
2013-06-25 00:47:00,50.7,49.8,29.84,SSW,202,7.8,7.8,97,0.00,,,0.00,WUHU21623XXSP,2013-06-25 07:47:00,
2013-06-25 00:52:00,50.7,49.8,29.84,SW,225,0.0,7.8,97,0.00,,,0.00,WUHU21623XXSP,2013-06-25 07:52:00,
2013-06-25 00:57:00,50.5,49.6,29.84,SSW,202,0.0,7.8,97,0.00,,,0.00,WUHU21623XXSP,2013-06-25 07:57:00,
2013-06-25 01:02:00,50.5,49.9,29.84,SSW,202,5.6,7.8,98,0.00,,,0.00,WUHU21623XXSP,2013-06-25 08:02:00,
2013-06-25 01:07:00,50.5,49.9,29.84,SSW,202,5.6,5.6,98,0.00,,,0.00,WUHU21623XXSP,2013-06-25 08:07:00,
2013-06-25 01:12:00,50.4,49.8,29.83,SSW,202,1.3,8.5,98,0.00,,,0.00,WUHU21623XXSP,2013-06-25 08:12:00,
2013-06-25 01:17:00,50.4,49.8,29.84,SSW,202,5.4,8.5,98,0.00,,,0.00,WUHU21623XXSP,2013-06-25 08:17:00,
2013-06-25 01:22:00,50.2,49.6,29.84,SSW,202,7.2,7.6,98,0.00,,,0.00,WUHU21623XXSP,2013-06-25 08:22:00,
2013-06-25 01:27:00,50.2,49.6,29.84,SSW,202,3.4,7.2,98,0.00,,,0.00,WUHU21623XXSP,2013-06-25 08:27:00,
2013-06-25 01:32:00,49.8,49.2,29.84,SSW,202,6.7,7.2,98,0.00,,,0.00,WUHU21623XXSP,2013-06-25 08:32:00,
2013-06-25 01:37:00,49.8,49.2,29.83,SSW,202,5.6,6.7,98,0.00,,,0.00,WUHU21623XXSP,2013-06-25 08:37:00,
2013-06-25 01:42:00,49.6,49.0,29.84,SSW,202,4.7,5.6,98,0.00,,,0.00,WUHU21623XXSP,2013-06-25 08:42:00,
2013-06-25 01:47:00,49.6,49.0,29.84,South,180,7.6,7.6,98,0.00,,,0.00,WUHU21623XXSP,2013-06-25 08:47:00,
2013-06-25 01:52:00,49.6,49.0,29.84,SSW,202,5.8,7.6,98,0.00,,,0.00,WUHU21623XXSP,2013-06-25 08:52:00,
2013-06-25 01:57:00,49.5,48.9,29.84,SSW,202,4.9,5.8,98,0.00,,,0.00,WUHU21623XXSP,2013-06-25 08:57:00,
2013-06-25 02:02:00,49.3,48.7,29.84,SSW,202,7.8,7.8,98,0.00,,,0.00,WUHU21623XXSP,2013-06-25 09:02:00,
2013-06-25 02:07:00,49.3,49.0,29.84,SSW,202,7.6,7.8,99,0.00,,,0.00,WUHU21623XXSP,2013-06-25 09:07:00,
2013-06-25 02:12:00,49.1,48.8,29.84,South,180,8.3,8.3,99,0.00,,,0.00,WUHU21623XXSP,2013-06-25 09:12:00,
2013-06-25 02:17:00,49.1,48.8,29.84,South,180,8.3,8.3,99,0.00,,,0.00,WUHU21623XXSP,2013-06-25 09:17:00,
2013-06-25 02:22:00,48.9,48.6,29.84,South,180,5.6,8.3,99,0.00,,,0.00,WUHU21623XXSP,2013-06-25 09:22:00,
2013-06-25 02:27:00,48.7,48.4,29.84,SSW,202,6.3,6.3,99,0.00,,,0.00,WUHU21623XXSP,2013-06-25 09:27:00,
2013-06-25 02:32:00,48.6,48.3,29.84,SSW,202,0.0,6.3,99,0.00,,,0.00,WUHU21623XXSP,2013-06-25 09:32:00,
2013-06-25 02:37:00,48.4,48.1,29.84,SSW,202,0.0,0.0,99,0.00,,,0.00,WUHU21623XXSP,2013-06-25 09:37:00,
2013-06-25 02:42:00,48.2,47.9,29.85,SSW,202,0.0,0.0,99,0.00,,,0.00,WUHU21623XXSP,2013-06-25 09:42:00,
2013-06-25 02:47:00,48.0,47.7,29.84,SSW,202,3.6,3.6,99,0.00,,,0.00,WUHU21623XXSP,2013-06-25 09:47:00,
2013-06-25 02:52:00,48.0,47.7,29.84,SSW,202,0.0,3.6,99,0.00,,,0.00,WUHU21623XXSP,2013-06-25 09:52:00,
2013-06-25 02:57:00,48.0,47.7,29.84,SSW,202,0.0,0.0,99,0.00,,,0.00,WUHU21623XXSP,2013-06-25 09:57:00,
2013-06-25 03:02:00,47.8,47.5,29.85,SSW,202,0.0,3.8,99,0.00,,,0.00,WUHU21623XXSP,2013-06-25 10:02:00,
2013-06-25 03:07:00,47.7,47.4,29.85,SSW,202,0.0,3.8,99,0.00,,,0.00,WUHU21623XXSP,2013-06-25 10:07:00,
2013-06-25 03:12:00,47.5,47.2,29.85,SSW,202,0.0,0.0,99,0.00,,,0.00,WUHU21623XXSP,2013-06-25 10:12:00,
2013-06-25 03:17:00,47.1,46.8,29.85,SSW,202,0.0,0.0,99,0.00,,,0.00,WUHU21623XXSP,2013-06-25 10:17:00,
2013-06-25 03:22:00,47.3,47.0,29.85,SSW,202,0.0,0.0,99,0.00,,,0.00,WUHU21623XXSP,2013-06-25 10:22:00,
2013-06-25 03:27:00,47.5,47.2,29.85,SSW,202,0.0,0.0,99,0.00,,,0.00,WUHU21623XXSP,2013-06-25 10:27:00,
2013-06-25 03:32:00,47.7,47.4,29.86,SSW,202,0.0,0.0,99,0.00,,,0.00,WUHU21623XXSP,2013-06-25 10:32:00,
2013-06-25 03:37:00,47.7,47.4,29.86,SSW,202,0.0,0.0,99,0.00,,,0.00,WUHU21623XXSP,2013-06-25 10:37:00,
2013-06-25 03:42:00,47.8,47.5,29.86,South,180,0.0,0.9,99,0.00,,,0.00,WUHU21623XXSP,2013-06-25 10:42:00,
2013-06-25 03:47:00,47.8,47.5,29.86,South,180,0.0,0.9,99,0.00,,,0.00,WUHU21623XXSP,2013-06-25 10:47:00,
2013-06-25 03:52:00,47.8,47.5,29.86,South,180,0.0,0.0,99,0.00,,,0.00,WUHU21623XXSP,2013-06-25 10:52:00,
2013-06-25 03:57:00,48.0,47.9,29.86,South,180,0.0,0.0,100,0.00,,,0.00,WUHU21623XXSP,2013-06-25 10:57:00,
2013-06-25 04:02:00,47.8,47.7,29.86,South,180,0.0,0.0,100,0.00,,,0.00,WUHU21623XXSP,2013-06-25 11:02:00,
2013-06-25 04:07:00,47.8,47.7,29.86,South,180,0.0,0.0,100,0.00,,,0.00,WUHU21623XXSP,2013-06-25 11:07:00,
2013-06-25 04:12:00,48.0,47.9,29.86,South,180,0.0,0.0,100,0.00,,,0.00,WUHU21623XXSP,2013-06-25 11:12:00,
2013-06-25 04:17:00,48.0,47.9,29.86,South,180,0.0,0.0,100,0.00,,,0.00,WUHU21623XXSP,2013-06-25 11:17:00,
2013-06-25 04:22:00,48.0,47.9,29.86,South,180,0.0,0.0,100,0.00,,,0.00,WUHU21623XXSP,2013-06-25 11:22:00,
2013-06-25 04:27:00,48.0,47.9,29.86,South,180,0.0,0.0,100,0.00,,,0.00,WUHU21623XXSP,2013-06-25 11:27:00,
2013-06-25 04:32:00,48.0,47.9,29.86,South,180,0.0,0.0,100,0.00,,,0.00,WUHU21623XXSP,2013-06-25 11:32:00,
2013-06-25 04:37:00,47.8,47.7,29.86,South,180,0.0,0.0,100,0.00,,,0.00,WUHU21623XXSP,2013-06-25 11:37:00,
2013-06-25 04:42:00,47.8,47.7,29.87,South,180,0.0,0.0,100,0.00,,,0.00,WUHU21623XXSP,2013-06-25 11:42:00,
2013-06-25 04:47:00,47.8,47.7,29.87,South,180,0.0,0.0,100,0.00,,,0.00,WUHU21623XXSP,2013-06-25 11:47:00,
2013-06-25 04:52:00,47.8,47.7,29.88,South,180,0.0,0.0,100,0.00,,,0.00,WUHU21623XXSP,2013-06-25 11:52:00,
2013-06-25 04:57:00,47.8,47.7,29.88,South,180,0.0,0.0,100,0.00,,,0.00,WUHU21623XXSP,2013-06-25 11:57:00,
2013-06-25 05:02:00,47.8,47.7,29.88,South,180,0.0,0.0,100,0.00,,,0.00,WUHU21623XXSP,2013-06-25 12:02:00,
2013-06-25 05:07:00,47.8,47.7,29.87,South,180,0.0,0.0,100,0.00,,,0.00,WUHU21623XXSP,2013-06-25 12:07:00,
2013-06-25 05:12:00,47.8,47.7,29.87,South,180,0.0,0.0,100,0.00,,,0.00,WUHU21623XXSP,2013-06-25 12:12:00,
2013-06-25 05:17:00,47.8,47.7,29.87,South,180,0.0,0.0,100,0.00,,,0.00,WUHU21623XXSP,2013-06-25 12:17:00,
2013-06-25 05:22:00,47.8,47.7,29.88,South,180,0.0,0.0,100,0.00,,,0.00,WUHU21623XXSP,2013-06-25 12:22:00,
2013-06-25 05:27:00,48.0,47.9,29.88,South,180,0.0,0.0,100,0.00,,,0.00,WUHU21623XXSP,2013-06-25 12:27:00,
2013-06-25 05:32:00,48.0,47.9,29.88,South,180,0.0,0.0,100,0.02,,,0.00,WUHU21623XXSP,2013-06-25 12:32:00,
2013-06-25 05:37:00,48.0,47.9,29.88,South,180,0.0,0.0,100,0.02,,,0.02,WUHU21623XXSP,2013-06-25 12:37:00,
2013-06-25 05:42:00,48.4,48.3,29.88,South,180,0.0,0.0,100,0.02,,,0.02,WUHU21623XXSP,2013-06-25 12:42:00,
2013-06-25 05:47:00,48.4,48.3,29.88,South,180,0.0,0.0,100,0.02,,,0.02,WUHU21623XXSP,2013-06-25 12:47:00,
2013-06-25 05:52:00,48.0,47.9,29.88,South,180,0.0,0.0,100,0.02,,,0.02,WUHU21623XXSP,2013-06-25 12:52:00,
2013-06-25 05:57:00,48.0,47.9,29.88,South,180,0.0,0.0,100,0.02,,,0.02,WUHU21623XXSP,2013-06-25 12:57:00,
2013-06-25 06:02:00,48.4,48.3,29.88,South,180,0.0,0.0,100,0.02,,,0.02,WUHU21623XXSP,2013-06-25 13:02:00,
2013-06-25 06:07:00,49.3,49.2,29.88,South,180,0.0,0.0,100,0.02,,,0.02,WUHU21623XXSP,2013-06-25 13:07:00,
2013-06-25 06:12:00,51.1,51.0,29.88,SSE,157,2.5,2.5,100,0.02,,,0.02,WUHU21623XXSP,2013-06-25 13:12:00,
2013-06-25 06:17:00,52.0,51.9,29.88,SSE,157,2.5,2.5,100,0.02,,,0.02,WUHU21623XXSP,2013-06-25 13:17:00,
2013-06-25 06:22:00,52.3,52.2,29.88,SSE,157,5.4,5.4,100,0.02,,,0.02,WUHU21623XXSP,2013-06-25 13:22:00,
2013-06-25 06:27:00,52.5,51.9,29.88,SSE,157,4.5,5.8,98,0.02,,,0.02,WUHU21623XXSP,2013-06-25 13:27:00,
2013-06-25 06:32:00,53.2,52.3,29.88,SSE,157,6.7,6.7,97,0.00,,,0.02,WUHU21623XXSP,2013-06-25 13:32:00,
2013-06-25 06:37:00,52.9,51.4,29.88,SSE,157,7.4,7.4,95,0.00,,,0.02,WUHU21623XXSP,2013-06-25 13:37:00,
2013-06-25 06:42:00,52.0,50.2,29.88,SSE,157,7.4,8.3,94,0.00,,,0.02,WUHU21623XXSP,2013-06-25 13:42:00,
2013-06-25 06:47:00,52.0,50.8,29.88,SSE,157,4.0,8.3,96,0.00,,,0.02,WUHU21623XXSP,2013-06-25 13:47:00,
2013-06-25 06:52:00,52.3,51.1,29.88,SSE,157,4.7,6.3,96,0.00,,,0.02,WUHU21623XXSP,2013-06-25 13:52:00,
2013-06-25 06:57:00,53.2,52.0,29.87,SE,135,5.8,5.8,96,0.00,,,0.02,WUHU21623XXSP,2013-06-25 13:57:00,
2013-06-25 07:02:00,54.0,52.5,29.87,SSE,157,8.3,8.3,95,0.00,,,0.02,WUHU21623XXSP,2013-06-25 14:02:00,
2013-06-25 07:07:00,53.8,51.7,29.88,SSE,157,8.1,8.3,93,0.00,,,0.02,WUHU21623XXSP,2013-06-25 14:07:00,
2013-06-25 07:12:00,53.4,51.6,29.88,SSE,157,8.7,8.7,94,0.00,,,0.02,WUHU21623XXSP,2013-06-25 14:12:00,
2013-06-25 07:17:00,53.2,51.4,29.87,SE,135,8.5,8.7,94,0.00,,,0.02,WUHU21623XXSP,2013-06-25 14:17:00,
2013-06-25 07:22:00,53.2,51.7,29.88,SSE,157,5.6,8.5,95,0.00,,,0.02,WUHU21623XXSP,2013-06-25 14:22:00,
2013-06-25 07:27:00,53.4,51.9,29.88,SSE,157,6.9,6.9,95,0.00,,,0.02,WUHU21623XXSP,2013-06-25 14:27:00,
2013-06-25 07:32:00,53.4,51.9,29.88,SSE,157,4.5,6.9,95,0.00,,,0.02,WUHU21623XXSP,2013-06-25 14:32:00,
2013-06-25 07:37:00,53.8,52.3,29.88,South,180,6.7,7.8,95,0.00,,,0.02,WUHU21623XXSP,2013-06-25 14:37:00,
2013-06-25 07:42:00,54.1,52.3,29.88,SSE,157,6.0,8.9,94,0.00,,,0.02,WUHU21623XXSP,2013-06-25 14:42:00,
2013-06-25 07:47:00,54.7,52.9,29.88,SSE,157,7.8,8.9,94,0.00,,,0.02,WUHU21623XXSP,2013-06-25 14:47:00,
2013-06-25 07:52:00,55.9,53.8,29.88,SSE,157,0.0,7.8,93,0.00,,,0.02,WUHU21623XXSP,2013-06-25 14:52:00,
2013-06-25 07:57:00,57.6,54.6,29.88,SE,135,5.6,5.6,90,0.00,,,0.02,WUHU21623XXSP,2013-06-25 14:57:00,
2013-06-25 08:02:00,57.4,53.8,29.88,SSE,157,7.2,8.3,88,0.00,,,0.02,WUHU21623XXSP,2013-06-25 15:02:00,
2013-06-25 08:07:00,57.0,53.7,29.88,SSE,157,8.7,8.7,89,0.00,,,0.02,WUHU21623XXSP,2013-06-25 15:07:00,
2013-06-25 08:12:00,57.2,54.2,29.88,SE,135,6.7,8.7,90,0.00,,,0.02,WUHU21623XXSP,2013-06-25 15:12:00,
2013-06-25 08:17:00,58.8,55.8,29.88,SE,135,6.7,6.7,90,0.00,,,0.02,WUHU21623XXSP,2013-06-25 15:17:00,
2013-06-25 08:22:00,60.4,55.8,29.88,SE,135,6.7,6.7,85,0.00,,,0.02,WUHU21623XXSP,2013-06-25 15:22:00,
2013-06-25 08:27:00,59.4,55.1,29.88,SE,135,4.0,8.9,86,0.00,,,0.02,WUHU21623XXSP,2013-06-25 15:27:00,
2013-06-25 08:32:00,59.9,55.0,29.88,South,180,6.7,8.9,84,0.00,,,0.02,WUHU21623XXSP,2013-06-25 15:32:00,
2013-06-25 08:37:00,59.0,54.4,29.88,South,180,6.9,6.9,85,0.00,,,0.02,WUHU21623XXSP,2013-06-25 15:37:00,
2013-06-25 08:42:00,59.7,55.1,29.88,South,180,4.7,6.9,85,0.00,,,0.02,WUHU21623XXSP,2013-06-25 15:42:00,
2013-06-25 08:47:00,59.4,54.8,29.88,SSE,157,0.0,7.4,85,0.00,,,0.02,WUHU21623XXSP,2013-06-25 15:47:00,
2013-06-25 08:52:00,58.8,54.6,29.89,SSE,157,7.4,7.4,86,0.00,,,0.02,WUHU21623XXSP,2013-06-25 15:52:00,
2013-06-25 08:57:00,58.1,54.5,29.89,South,180,6.7,7.8,88,0.00,,,0.02,WUHU21623XXSP,2013-06-25 15:57:00,
2013-06-25 09:02:00,58.3,54.7,29.89,SE,135,4.0,7.8,88,0.00,,,0.02,WUHU21623XXSP,2013-06-25 16:02:00,
2013-06-25 09:07:00,58.8,55.2,29.89,SSW,202,7.8,7.8,88,0.00,,,0.02,WUHU21623XXSP,2013-06-25 16:07:00,
2013-06-25 09:12:00,58.8,55.2,29.89,South,180,5.6,7.8,88,0.00,,,0.02,WUHU21623XXSP,2013-06-25 16:12:00,
2013-06-25 09:17:00,59.5,55.6,29.89,SSE,157,3.4,5.6,87,0.00,,,0.02,WUHU21623XXSP,2013-06-25 16:17:00,
2013-06-25 09:22:00,60.1,56.1,29.89,South,180,3.4,3.6,87,0.00,,,0.02,WUHU21623XXSP,2013-06-25 16:22:00,
2013-06-25 09:27:00,60.8,56.2,29.89,South,180,2.5,3.4,85,0.00,,,0.02,WUHU21623XXSP,2013-06-25 16:27:00,
2013-06-25 09:32:00,61.3,56.4,29.89,South,180,0.0,3.4,84,0.00,,,0.02,WUHU21623XXSP,2013-06-25 16:32:00,
2013-06-25 09:37:00,63.0,57.1,29.89,SSE,157,7.2,7.2,81,0.00,,,0.02,WUHU21623XXSP,2013-06-25 16:37:00,
2013-06-25 09:42:00,62.2,55.6,29.88,SSE,157,5.6,7.2,79,0.00,,,0.02,WUHU21623XXSP,2013-06-25 16:42:00,
2013-06-25 09:47:00,62.2,55.9,29.89,South,180,6.9,7.2,80,0.00,,,0.02,WUHU21623XXSP,2013-06-25 16:47:00,
2013-06-25 09:52:00,62.4,56.5,29.88,SSW,202,5.1,6.9,81,0.00,,,0.02,WUHU21623XXSP,2013-06-25 16:52:00,
2013-06-25 09:57:00,64.0,57.4,29.89,South,180,4.7,5.1,79,0.00,,,0.02,WUHU21623XXSP,2013-06-25 16:57:00,
2013-06-25 10:02:00,63.1,55.4,29.89,South,180,6.5,6.5,76,0.00,,,0.02,WUHU21623XXSP,2013-06-25 17:02:00,
2013-06-25 10:07:00,62.4,55.5,29.88,SSE,157,3.1,6.5,78,0.00,,,0.02,WUHU21623XXSP,2013-06-25 17:07:00,
2013-06-25 10:12:00,63.3,56.0,29.88,South,180,5.1,5.1,77,0.00,,,0.02,WUHU21623XXSP,2013-06-25 17:12:00,
2013-06-25 10:17:00,64.6,57.3,29.88,SSE,157,3.8,5.1,77,0.00,,,0.02,WUHU21623XXSP,2013-06-25 17:17:00,
2013-06-25 10:22:00,66.4,59.4,29.88,SSW,202,0.0,3.8,78,0.00,,,0.02,WUHU21623XXSP,2013-06-25 17:22:00,
2013-06-25 10:27:00,66.4,57.2,29.88,South,180,6.0,6.0,72,0.00,,,0.02,WUHU21623XXSP,2013-06-25 17:27:00,
2013-06-25 10:32:00,65.8,57.0,29.88,South,180,6.0,6.0,73,0.00,,,0.02,WUHU21623XXSP,2013-06-25 17:32:00,
2013-06-25 10:37:00,64.8,56.4,29.89,SSE,157,8.5,8.5,74,0.00,,,0.02,WUHU21623XXSP,2013-06-25 17:37:00,
2013-06-25 10:42:00,64.2,56.2,29.89,SSE,157,6.7,8.5,75,0.00,,,0.02,WUHU21623XXSP,2013-06-25 17:42:00,
2013-06-25 10:47:00,64.8,56.7,29.88,SE,135,0.0,7.8,75,0.00,,,0.02,WUHU21623XXSP,2013-06-25 17:47:00,
2013-06-25 10:52:00,65.1,56.7,29.88,South,180,4.5,6.7,74,0.00,,,0.02,WUHU21623XXSP,2013-06-25 17:52:00,
2013-06-25 10:57:00,65.8,56.6,29.88,South,180,7.4,7.4,72,0.00,,,0.02,WUHU21623XXSP,2013-06-25 17:57:00,
2013-06-25 11:02:00,65.7,56.9,29.88,South,180,4.3,7.4,73,0.00,,,0.02,WUHU21623XXSP,2013-06-25 18:02:00,
2013-06-25 11:07:00,65.1,56.7,29.88,South,180,0.0,4.3,74,0.00,,,0.02,WUHU21623XXSP,2013-06-25 18:07:00,
2013-06-25 11:12:00,66.0,58.3,29.88,South,180,0.0,4.3,76,0.00,,,0.02,WUHU21623XXSP,2013-06-25 18:12:00,
2013-06-25 11:17:00,68.2,59.3,29.88,West,270,4.0,4.0,73,0.00,,,0.02,WUHU21623XXSP,2013-06-25 18:17:00,
2013-06-25 11:22:00,69.1,59.8,29.88,WSW,247,0.0,4.0,72,0.00,,,0.02,WUHU21623XXSP,2013-06-25 18:22:00,
2013-06-25 11:27:00,69.3,59.2,29.88,WNW,292,6.0,6.0,70,0.00,,,0.02,WUHU21623XXSP,2013-06-25 18:27:00,
2013-06-25 11:32:00,68.7,58.6,29.88,WNW,292,0.0,6.0,70,0.00,,,0.02,WUHU21623XXSP,2013-06-25 18:32:00,
2013-06-25 11:37:00,68.7,58.6,29.88,WSW,247,0.0,2.7,70,0.00,,,0.02,WUHU21623XXSP,2013-06-25 18:37:00,
2013-06-25 11:42:00,68.5,58.4,29.88,WSW,247,0.4,2.7,70,0.00,,,0.02,WUHU21623XXSP,2013-06-25 18:42:00,
2013-06-25 11:47:00,67.6,57.6,29.88,WSW,247,0.0,0.4,70,0.00,,,0.02,WUHU21623XXSP,2013-06-25 18:47:00,
2013-06-25 11:52:00,66.6,57.0,29.89,WSW,247,0.0,6.3,71,0.00,,,0.02,WUHU21623XXSP,2013-06-25 18:52:00,
2013-06-25 11:57:00,64.6,56.2,29.89,SW,225,7.6,7.6,74,0.00,,,0.02,WUHU21623XXSP,2013-06-25 18:57:00,
2013-06-25 12:02:00,63.1,55.8,29.89,SW,225,7.2,7.6,77,0.00,,,0.02,WUHU21623XXSP,2013-06-25 19:02:00,
2013-06-25 12:07:00,61.3,55.4,29.90,SW,225,9.6,11.4,81,0.00,,,0.02,WUHU21623XXSP,2013-06-25 19:07:00,
2013-06-25 12:12:00,59.2,54.3,29.90,SW,225,6.9,11.4,84,0.02,,,0.04,WUHU21623XXSP,2013-06-25 19:12:00,
2013-06-25 12:17:00,58.6,54.4,29.90,SW,225,6.9,8.3,86,0.04,,,0.06,WUHU21623XXSP,2013-06-25 19:17:00,
2013-06-25 12:22:00,58.3,54.4,29.90,SW,225,6.3,9.2,87,0.04,,,0.06,WUHU21623XXSP,2013-06-25 19:22:00,
2013-06-25 12:27:00,58.3,55.0,29.90,WSW,247,6.7,9.2,89,0.06,,,0.08,WUHU21623XXSP,2013-06-25 19:27:00,
2013-06-25 12:32:00,58.6,55.3,29.90,WSW,247,0.0,6.7,89,0.06,,,0.08,WUHU21623XXSP,2013-06-25 19:32:00,
2013-06-25 12:37:00,58.8,55.5,29.90,WSW,247,8.1,8.1,89,0.06,,,0.08,WUHU21623XXSP,2013-06-25 19:37:00,
2013-06-25 12:42:00,58.8,55.5,29.89,WSW,247,6.9,8.1,89,0.06,,,0.08,WUHU21623XXSP,2013-06-25 19:42:00,
2013-06-25 12:47:00,59.2,55.9,29.89,West,270,0.0,6.9,89,0.06,,,0.08,WUHU21623XXSP,2013-06-25 19:47:00,
2013-06-25 12:52:00,59.9,56.9,29.89,WSW,247,0.0,0.0,90,0.06,,,0.08,WUHU21623XXSP,2013-06-25 19:52:00,
2013-06-25 12:57:00,61.3,58.3,29.89,West,270,0.0,0.0,90,0.06,,,0.08,WUHU21623XXSP,2013-06-25 19:57:00,
2013-06-25 13:02:00,62.2,58.5,29.89,WSW,247,0.0,0.0,88,0.06,,,0.08,WUHU21623XXSP,2013-06-25 20:02:00,
2013-06-25 13:07:00,62.4,58.1,29.90,WNW,292,0.0,0.0,86,0.06,,,0.08,WUHU21623XXSP,2013-06-25 20:07:00,
2013-06-25 13:12:00,62.8,58.5,29.90,WNW,292,0.0,0.0,86,0.02,,,0.08,WUHU21623XXSP,2013-06-25 20:12:00,
2013-06-25 13:17:00,62.8,58.2,29.90,WNW,292,0.0,0.0,85,0.02,,,0.08,WUHU21623XXSP,2013-06-25 20:17:00,
2013-06-25 13:22:00,62.2,57.6,29.90,NW,315,2.5,2.5,85,0.00,,,0.08,WUHU21623XXSP,2013-06-25 20:22:00,
2013-06-25 13:27:00,62.6,58.0,29.90,NNW,337,0.0,2.5,85,0.00,,,0.08,WUHU21623XXSP,2013-06-25 20:27:00,
2013-06-25 13:32:00,63.0,58.7,29.90,North,0,5.8,5.8,86,0.00,,,0.08,WUHU21623XXSP,2013-06-25 20:32:00,
2013-06-25 13:33:00,63.0,58.4,29.90,North,0,0.0,5.8,85,0.00,,,0.08,WUHU21623XXSP,2013-06-25 20:33:00,
2013-06-25 13:40:00,62.8,58.2,29.89,North,0,0.0,5.8,85,0.00,,,0.08,WUHU21623XXSP,2013-06-25 20:40:00,
2013-06-25 13:44:00,62.4,58.1,29.89,NE,45,6.0,6.7,86,0.00,,,0.08,WUHU21623XXSP,2013-06-25 20:44:00,
2013-06-25 13:51:00,61.5,57.2,29.89,NNE,22,2.5,6.7,86,0.00,,,0.08,WUHU21623XXSP,2013-06-25 20:51:00,
2013-06-25 14:06:00,61.3,57.6,29.89,NNE,22,0.0,0.0,88,0.00,,,0.08,WUHU21623XXSP,2013-06-25 21:06:00,
2013-06-25 14:11:00,62.2,57.6,29.90,NNE,22,0.0,0.0,85,0.00,,,0.08,WUHU21623XXSP,2013-06-25 21:11:00,
2013-06-25 14:16:00,62.6,58.0,29.90,NNE,22,3.1,3.1,85,0.00,,,0.08,WUHU21623XXSP,2013-06-25 21:16:00,
2013-06-25 14:21:00,62.8,57.9,29.89,NNE,22,0.0,3.1,84,0.00,,,0.08,WUHU21623XXSP,2013-06-25 21:21:00,
2013-06-25 14:26:00,62.6,57.7,29.90,NE,45,0.0,0.0,84,0.00,,,0.08,WUHU21623XXSP,2013-06-25 21:26:00,
2013-06-25 14:31:00,62.8,58.2,29.90,NE,45,0.0,0.0,85,0.00,,,0.08,WUHU21623XXSP,2013-06-25 21:31:00,
2013-06-25 14:36:00,62.8,57.9,29.90,NE,45,0.0,0.0,84,0.00,,,0.08,WUHU21623XXSP,2013-06-25 21:36:00,
2013-06-25 14:41:00,63.0,58.0,29.91,NE,45,0.0,0.0,84,0.00,,,0.08,WUHU21623XXSP,2013-06-25 21:41:00,
2013-06-25 14:46:00,63.1,58.1,29.90,NE,45,1.6,1.6,84,0.00,,,0.08,WUHU21623XXSP,2013-06-25 21:46:00,
2013-06-25 14:51:00,63.1,58.1,29.90,WSW,247,0.9,1.6,84,0.00,,,0.08,WUHU21623XXSP,2013-06-25 21:51:00,
2013-06-25 14:56:00,63.5,58.2,29.89,WSW,247,2.5,6.5,83,0.00,,,0.08,WUHU21623XXSP,2013-06-25 21:56:00,
2013-06-25 15:01:00,64.2,58.9,29.90,WSW,247,0.0,6.5,83,0.00,,,0.08,WUHU21623XXSP,2013-06-25 22:01:00,
2013-06-25 15:06:00,65.3,59.0,29.90,North,0,0.0,0.0,80,0.00,,,0.08,WUHU21623XXSP,2013-06-25 22:06:00,
2013-06-25 15:11:00,65.3,58.6,29.89,North,0,0.0,0.0,79,0.00,,,0.08,WUHU21623XXSP,2013-06-25 22:11:00,
2013-06-25 15:16:00,64.8,58.1,29.89,North,0,0.0,0.0,79,0.00,,,0.08,WUHU21623XXSP,2013-06-25 22:16:00,
2013-06-25 15:21:00,64.6,58.3,29.90,North,0,1.8,1.8,80,0.00,,,0.08,WUHU21623XXSP,2013-06-25 22:21:00,
2013-06-25 15:26:00,64.8,58.5,29.90,West,270,0.0,1.8,80,0.00,,,0.08,WUHU21623XXSP,2013-06-25 22:26:00,
2013-06-25 15:31:00,65.3,58.6,29.90,West,270,0.0,0.0,79,0.00,,,0.08,WUHU21623XXSP,2013-06-25 22:31:00,
2013-06-25 15:36:00,65.8,59.1,29.89,WSW,247,0.0,0.0,79,0.00,,,0.08,WUHU21623XXSP,2013-06-25 22:36:00,
2013-06-25 15:41:00,65.8,58.8,29.90,WSW,247,0.0,0.0,78,0.00,,,0.08,WUHU21623XXSP,2013-06-25 22:41:00,
2013-06-25 15:46:00,65.5,58.1,29.90,WSW,247,0.7,0.7,77,0.00,,,0.08,WUHU21623XXSP,2013-06-25 22:46:00,
2013-06-25 15:51:00,66.0,58.6,29.90,WSW,247,3.4,3.4,77,0.00,,,0.08,WUHU21623XXSP,2013-06-25 22:51:00,
2013-06-25 15:56:00,66.0,58.3,29.90,West,270,1.6,3.6,76,0.00,,,0.08,WUHU21623XXSP,2013-06-25 22:56:00,
2013-06-25 16:01:00,66.0,58.3,29.90,West,270,1.1,4.0,76,0.00,,,0.08,WUHU21623XXSP,2013-06-25 23:01:00,
2013-06-25 16:06:00,66.4,58.3,29.89,SW,225,7.4,7.4,75,0.00,,,0.08,WUHU21623XXSP,2013-06-25 23:06:00,
2013-06-25 16:11:00,66.4,58.3,29.90,WSW,247,3.6,7.4,75,0.00,,,0.08,WUHU21623XXSP,2013-06-25 23:11:00,
2013-06-25 16:16:00,66.6,58.1,29.90,West,270,0.0,3.6,74,0.00,,,0.08,WUHU21623XXSP,2013-06-25 23:16:00,
2013-06-25 16:21:00,66.7,58.2,29.90,WSW,247,0.9,1.3,74,0.00,,,0.08,WUHU21623XXSP,2013-06-25 23:21:00,
2013-06-25 16:26:00,67.1,58.6,29.89,WSW,247,0.0,1.3,74,0.00,,,0.08,WUHU21623XXSP,2013-06-25 23:26:00,
2013-06-25 16:31:00,67.1,58.6,29.89,West,270,0.0,0.0,74,0.00,,,0.08,WUHU21623XXSP,2013-06-25 23:31:00,
2013-06-25 16:36:00,67.3,58.4,29.89,WSW,247,7.6,7.6,73,0.00,,,0.08,WUHU21623XXSP,2013-06-25 23:36:00,
2013-06-25 16:41:00,67.3,58.4,29.89,WSW,247,0.0,7.6,73,0.00,,,0.08,WUHU21623XXSP,2013-06-25 23:41:00,
2013-06-25 16:46:00,67.6,58.7,29.89,WSW,247,7.6,7.6,73,0.00,,,0.08,WUHU21623XXSP,2013-06-25 23:46:00,
2013-06-25 16:51:00,69.1,59.4,29.89,WSW,247,0.0,8.3,71,0.00,,,0.08,WUHU21623XXSP,2013-06-25 23:51:00,
2013-06-25 16:56:00,70.2,60.1,29.89,WSW,247,0.0,8.3,70,0.00,,,0.08,WUHU21623XXSP,2013-06-25 23:56:00,
2013-06-25 17:01:00,70.5,59.5,29.89,WSW,247,5.8,5.8,68,0.00,,,0.08,WUHU21623XXSP,2013-06-26 00:01:00,
2013-06-25 17:06:00,70.7,59.3,29.88,West,270,5.8,5.8,67,0.00,,,0.08,WUHU21623XXSP,2013-06-26 00:06:00,
2013-06-25 17:11:00,70.2,58.4,29.89,West,270,0.0,7.2,66,0.00,,,0.08,WUHU21623XXSP,2013-06-26 00:11:00,
2013-06-25 17:16:00,69.1,57.4,29.89,WSW,247,0.0,7.2,66,0.00,,,0.08,WUHU21623XXSP,2013-06-26 00:16:00,
2013-06-25 17:21:00,67.8,56.9,29.89,SW,225,0.4,7.2,68,0.00,,,0.08,WUHU21623XXSP,2013-06-26 00:21:00,
2013-06-25 17:26:00,67.1,56.7,29.89,SW,225,3.1,7.2,69,0.00,,,0.08,WUHU21623XXSP,2013-06-26 00:26:00,
2013-06-25 17:31:00,66.6,56.6,29.89,WSW,247,0.0,7.4,70,0.00,,,0.08,WUHU21623XXSP,2013-06-26 00:31:00,
2013-06-25 17:36:00,66.2,56.6,29.89,WSW,247,0.0,7.4,71,0.00,,,0.08,WUHU21623XXSP,2013-06-26 00:36:00,
2013-06-25 17:41:00,66.0,56.4,29.89,WSW,247,4.5,4.5,71,0.00,,,0.08,WUHU21623XXSP,2013-06-26 00:41:00,
2013-06-25 17:46:00,66.0,56.4,29.89,WSW,247,0.0,4.5,71,0.00,,,0.08,WUHU21623XXSP,2013-06-26 00:46:00,
2013-06-25 17:51:00,66.0,56.4,29.89,WSW,247,0.0,0.0,71,0.00,,,0.08,WUHU21623XXSP,2013-06-26 00:51:00,
2013-06-25 17:56:00,66.7,57.1,29.90,SW,225,5.6,5.6,71,0.00,,,0.08,WUHU21623XXSP,2013-06-26 00:56:00,
2013-06-25 18:01:00,67.3,56.9,29.90,WSW,247,3.8,5.6,69,0.00,,,0.08,WUHU21623XXSP,2013-06-26 01:01:00,
2013-06-25 18:06:00,66.7,56.3,29.89,WSW,247,3.8,8.5,69,0.00,,,0.08,WUHU21623XXSP,2013-06-26 01:06:00,
2013-06-25 18:11:00,66.4,56.4,29.90,SW,225,0.0,8.5,70,0.00,,,0.08,WUHU21623XXSP,2013-06-26 01:11:00,
2013-06-25 18:16:00,66.2,56.2,29.89,SW,225,6.9,6.9,70,0.00,,,0.08,WUHU21623XXSP,2013-06-26 01:16:00,
2013-06-25 18:21:00,66.0,56.0,29.90,WSW,247,0.0,6.9,70,0.00,,,0.08,WUHU21623XXSP,2013-06-26 01:21:00,
2013-06-25 18:26:00,65.8,56.2,29.90,WSW,247,4.3,6.0,71,0.00,,,0.08,WUHU21623XXSP,2013-06-26 01:26:00,
2013-06-25 18:31:00,65.3,55.7,29.90,SW,225,8.3,8.3,71,0.00,,,0.08,WUHU21623XXSP,2013-06-26 01:31:00,
2013-06-25 18:36:00,64.9,55.7,29.90,SW,225,6.7,8.3,72,0.00,,,0.08,WUHU21623XXSP,2013-06-26 01:36:00,
2013-06-25 18:41:00,64.6,55.4,29.90,SW,225,0.0,8.3,72,0.00,,,0.08,WUHU21623XXSP,2013-06-26 01:41:00,
2013-06-25 18:46:00,64.8,55.6,29.90,WSW,247,0.0,0.0,72,0.00,,,0.08,WUHU21623XXSP,2013-06-26 01:46:00,
2013-06-25 18:51:00,68.2,57.7,29.90,WSW,247,8.3,8.3,69,0.00,,,0.08,WUHU21623XXSP,2013-06-26 01:51:00,
2013-06-25 18:56:00,68.7,57.8,29.90,SW,225,3.6,8.3,68,0.00,,,0.08,WUHU21623XXSP,2013-06-26 01:56:00,
2013-06-25 19:01:00,69.8,58.0,29.90,WSW,247,6.9,6.9,66,0.00,,,0.08,WUHU21623XXSP,2013-06-26 02:01:00,
2013-06-25 19:06:00,68.4,57.1,29.90,WSW,247,3.1,6.9,67,0.00,,,0.08,WUHU21623XXSP,2013-06-26 02:06:00,
2013-06-25 19:11:00,67.3,56.5,29.90,SW,225,3.1,6.5,68,0.00,,,0.08,WUHU21623XXSP,2013-06-26 02:11:00,
2013-06-25 19:16:00,66.4,56.0,29.90,SW,225,5.8,6.5,69,0.00,,,0.08,WUHU21623XXSP,2013-06-26 02:16:00,
2013-06-25 19:21:00,65.5,55.5,29.90,SW,225,0.0,5.8,70,0.00,,,0.08,WUHU21623XXSP,2013-06-26 02:21:00,
2013-06-25 19:26:00,65.1,55.5,29.90,SSW,202,0.0,3.1,71,0.00,,,0.08,WUHU21623XXSP,2013-06-26 02:26:00,
2013-06-25 19:31:00,64.9,55.7,29.90,SSW,202,0.0,0.0,72,0.00,,,0.08,WUHU21623XXSP,2013-06-26 02:31:00,
2013-06-25 19:36:00,64.6,55.4,29.90,SW,225,0.0,4.0,72,0.00,,,0.08,WUHU21623XXSP,2013-06-26 02:36:00,
2013-06-25 19:41:00,64.2,55.0,29.91,SW,225,0.0,4.0,72,0.00,,,0.08,WUHU21623XXSP,2013-06-26 02:41:00,
2013-06-25 19:46:00,64.0,55.2,29.91,SW,225,0.0,1.3,73,0.00,,,0.08,WUHU21623XXSP,2013-06-26 02:46:00,
2013-06-25 19:51:00,63.3,54.9,29.91,SW,225,0.0,0.0,74,0.00,,,0.08,WUHU21623XXSP,2013-06-26 02:51:00,
2013-06-25 19:56:00,63.1,54.7,29.91,SW,225,1.1,2.7,74,0.00,,,0.08,WUHU21623XXSP,2013-06-26 02:56:00,
2013-06-25 20:01:00,63.0,54.6,29.91,SW,225,0.0,2.7,74,0.00,,,0.08,WUHU21623XXSP,2013-06-26 03:01:00,
2013-06-25 20:06:00,62.8,54.4,29.91,SW,225,0.0,5.8,74,0.00,,,0.08,WUHU21623XXSP,2013-06-26 03:06:00,
2013-06-25 20:11:00,62.4,54.4,29.91,SW,225,0.0,5.8,75,0.00,,,0.08,WUHU21623XXSP,2013-06-26 03:11:00,
2013-06-25 20:16:00,62.8,55.5,29.91,SW,225,0.0,0.0,77,0.00,,,0.08,WUHU21623XXSP,2013-06-26 03:16:00,
2013-06-25 20:21:00,62.8,55.5,29.91,SW,225,4.7,4.7,77,0.00,,,0.08,WUHU21623XXSP,2013-06-26 03:21:00,
2013-06-25 20:26:00,62.8,55.5,29.91,SW,225,0.0,4.7,77,0.00,,,0.08,WUHU21623XXSP,2013-06-26 03:26:00,
2013-06-25 20:31:00,62.2,54.9,29.91,SW,225,6.0,7.2,77,0.00,,,0.08,WUHU21623XXSP,2013-06-26 03:31:00,
2013-06-25 20:36:00,61.5,54.6,29.91,SW,225,0.0,7.2,78,0.00,,,0.08,WUHU21623XXSP,2013-06-26 03:36:00,
2013-06-25 20:41:00,61.2,54.3,29.92,SW,225,0.0,0.0,78,0.00,,,0.08,WUHU21623XXSP,2013-06-26 03:41:00,
2013-06-25 20:46:00,61.0,54.4,29.92,SW,225,1.6,1.6,79,0.00,,,0.08,WUHU21623XXSP,2013-06-26 03:46:00,
2013-06-25 20:51:00,60.4,54.2,29.92,SW,225,0.0,1.6,80,0.00,,,0.08,WUHU21623XXSP,2013-06-26 03:51:00,
2013-06-25 20:56:00,60.1,54.2,29.92,SW,225,0.0,1.6,81,0.00,,,0.08,WUHU21623XXSP,2013-06-26 03:56:00,
2013-06-25 21:01:00,59.9,54.0,29.92,SW,225,0.0,0.0,81,0.00,,,0.08,WUHU21623XXSP,2013-06-26 04:01:00,
2013-06-25 21:06:00,59.2,53.7,29.92,SSW,202,0.0,0.0,82,0.00,,,0.08,WUHU21623XXSP,2013-06-26 04:06:00,
2013-06-25 21:11:00,58.8,53.6,29.92,SW,225,0.0,0.0,83,0.00,,,0.08,WUHU21623XXSP,2013-06-26 04:11:00,
2013-06-25 21:16:00,58.6,53.4,29.93,SSW,202,0.0,0.0,83,0.00,,,0.08,WUHU21623XXSP,2013-06-26 04:16:00,
2013-06-25 21:21:00,57.9,53.0,29.93,SSW,202,0.0,0.0,84,0.00,,,0.08,WUHU21623XXSP,2013-06-26 04:21:00,
2013-06-25 21:26:00,57.7,52.8,29.93,SSW,202,0.0,0.0,84,0.00,,,0.08,WUHU21623XXSP,2013-06-26 04:26:00,
2013-06-25 21:31:00,57.7,53.2,29.93,SSW,202,0.0,0.0,85,0.00,,,0.08,WUHU21623XXSP,2013-06-26 04:31:00,
2013-06-25 21:36:00,57.6,53.1,29.93,SW,225,0.0,0.0,85,0.00,,,0.08,WUHU21623XXSP,2013-06-26 04:36:00,
2013-06-25 21:41:00,57.4,52.9,29.94,SW,225,0.0,0.0,85,0.00,,,0.08,WUHU21623XXSP,2013-06-26 04:41:00,
2013-06-25 21:46:00,57.2,52.7,29.93,SW,225,0.0,0.0,85,0.00,,,0.08,WUHU21623XXSP,2013-06-26 04:46:00,
2013-06-25 21:51:00,56.8,52.3,29.94,SW,225,0.0,0.0,85,0.00,,,0.08,WUHU21623XXSP,2013-06-26 04:51:00,
2013-06-25 21:56:00,56.3,51.8,29.94,SW,225,0.0,0.0,85,0.00,,,0.08,WUHU21623XXSP,2013-06-26 04:56:00,
2013-06-25 22:01:00,55.9,51.4,29.94,SW,225,0.0,0.0,85,0.00,,,0.08,WUHU21623XXSP,2013-06-26 05:01:00,
2013-06-25 22:06:00,55.6,51.4,29.94,SW,225,0.0,0.0,86,0.00,,,0.08,WUHU21623XXSP,2013-06-26 05:06:00,
2013-06-25 22:11:00,55.2,51.0,29.94,SW,225,0.0,0.0,86,0.00,,,0.08,WUHU21623XXSP,2013-06-26 05:11:00,
2013-06-25 22:16:00,55.0,50.8,29.94,SW,225,0.0,0.0,86,0.00,,,0.08,WUHU21623XXSP,2013-06-26 05:16:00,
2013-06-25 22:21:00,55.0,51.1,29.94,SW,225,0.0,0.0,87,0.00,,,0.08,WUHU21623XXSP,2013-06-26 05:21:00,
2013-06-25 22:26:00,55.0,51.1,29.94,SW,225,0.0,0.0,87,0.00,,,0.08,WUHU21623XXSP,2013-06-26 05:26:00,
2013-06-25 22:31:00,55.0,51.1,29.94,SW,225,0.0,0.0,87,0.00,,,0.08,WUHU21623XXSP,2013-06-26 05:31:00,
2013-06-25 22:36:00,55.2,51.6,29.94,SW,225,0.0,1.8,88,0.00,,,0.08,WUHU21623XXSP,2013-06-26 05:36:00,
2013-06-25 22:41:00,55.2,51.3,29.94,SW,225,0.0,1.8,87,0.00,,,0.08,WUHU21623XXSP,2013-06-26 05:41:00,
2013-06-25 22:46:00,55.2,51.3,29.94,SW,225,0.0,0.0,87,0.00,,,0.08,WUHU21623XXSP,2013-06-26 05:46:00,
2013-06-25 22:51:00,55.2,51.3,29.95,SW,225,0.0,0.0,87,0.00,,,0.08,WUHU21623XXSP,2013-06-26 05:51:00,
2013-06-25 22:56:00,55.0,51.1,29.95,SW,225,0.0,0.0,87,0.00,,,0.08,WUHU21623XXSP,2013-06-26 05:56:00,
2013-06-25 23:01:00,54.9,51.0,29.94,SW,225,0.0,0.0,87,0.00,,,0.08,WUHU21623XXSP,2013-06-26 06:01:00,
2013-06-25 23:06:00,54.7,50.8,29.95,SW,225,0.0,0.0,87,0.00,,,0.08,WUHU21623XXSP,2013-06-26 06:06:00,
2013-06-25 23:11:00,54.7,50.8,29.94,SW,225,0.0,0.0,87,0.00,,,0.08,WUHU21623XXSP,2013-06-26 06:11:00,
2013-06-25 23:16:00,54.9,51.3,29.95,SW,225,0.0,0.0,88,0.00,,,0.08,WUHU21623XXSP,2013-06-26 06:16:00,
2013-06-25 23:21:00,55.0,51.4,29.95,SW,225,0.0,0.0,88,0.00,,,0.08,WUHU21623XXSP,2013-06-26 06:21:00,
2013-06-25 23:26:00,55.0,51.4,29.96,WSW,247,0.0,0.0,88,0.00,,,0.08,WUHU21623XXSP,2013-06-26 06:26:00,
2013-06-25 23:31:00,55.0,51.1,29.96,WSW,247,0.0,0.0,87,0.00,,,0.08,WUHU21623XXSP,2013-06-26 06:31:00,
2013-06-25 23:36:00,54.9,51.3,29.96,WSW,247,0.0,0.0,88,0.00,,,0.08,WUHU21623XXSP,2013-06-26 06:36:00,
2013-06-25 23:41:00,54.7,50.8,29.96,WSW,247,0.0,0.0,87,0.00,,,0.08,WUHU21623XXSP,2013-06-26 06:41:00,
2013-06-25 23:46:00,54.7,51.1,29.96,WSW,247,0.0,0.0,88,0.00,,,0.08,WUHU21623XXSP,2013-06-26 06:46:00,
2013-06-25 23:51:00,54.5,50.9,29.96,WSW,247,0.0,0.0,88,0.00,,,0.08,WUHU21623XXSP,2013-06-26 06:51:00,
2013-06-25 23:56:00,54.5,50.9,29.96,WSW,247,0.0,0.0,88,0.00,,,0.08,WUHU21623XXSP,2013-06-26 06:56:00,